Weather in Taldykino

Russia / Oryol Oblast     52°28′47″N   35°00′29″E
temp.,
°C
wind,
m/s
gust,
m/s
humid.,
%
clouds,
%
prec.,
mm/h
press.,
hPa
HPBL,
m
20 january, thu
thu2000:00−11sw389794 0.0 1018124
03:00−9ssw499793 0.1 1016190
06:00−9ssw51198100 0.1 1014209
09:00−8ssw61496100 0.1 1013305
12:00−6s71495100 0.1 1011454
15:00−4s81594100 0.2 1008561
18:00−4ssw81693100 0.0 1006636
21:00−3ssw71495100 0.3 1005638
21 january, fri
fri2100:00−4s71296100 1.4 1004511
03:00−4s61196100 3.4 1002458
06:00−4ssw51096100 1.8 1000383
09:00−3sw5995100 2.6 1000518
12:00−5sw51193100 0.0 1000541
15:00−5ssw61294100 0.1 999681
18:00−4ssw71496100 0.4 998772
21:00−3sw81394100 1.8 998659
22 january, sat
sat2200:00−4sw81595100 0.8 999785
03:00−4sw61295100 1.8 1001626
06:00−5ssw4996100 0.4 1002273
09:00−5ssw4896100 1.1 1004365
12:00−5sw4793100 0.3 1006406
15:00−4ssw3593100 0.4 1008499
18:00−8sse359799 0.1 101167
21:00−8sse249766 0.3 101352
23 january, sun
sun2300:00−13se2210099 0.0 101620
03:00−15ese2210093 0.1 101817
06:00−16e22100100 0.0 102021
09:00−16e3410098 0.1 102445
12:00−9ene349587 0.0 1025143
15:00−9ne479429 0.1 1027230
18:00−14ne499692 0.0 1029127
21:00−12ne5129567 0.0 1030222
24 january, mon
mon2400:00−13ne5129432 0.0 1030214
03:00−12ne61592100 0.0 1030275
06:00−11nne71691100 0.0 1029395
09:00−10nne71594100 0.1 1029407
12:00−8ne61392100 0.1 1029393
15:00−8ne5109377 0.1 1028359
18:00−11ne489662 0.0 1030146
21:00−13ne499766 0.0 1030151